Weather reports worldwide

Advertisment
Beirut, Lebanon (40100): temperature & dewpoint: 12.07.2018 11:00:00 - 18.07.2018 11:00:00 (EEST)Beirut, Lebanon (40100): wind speed: 12.07.2018 11:00:00 - 18.07.2018 11:00:00 (EEST)Beirut, Lebanon (40100): wind direction: 12.07.2018 11:00:00 - 18.07.2018 11:00:00 (EEST)Beirut, Lebanon (40100): reduced air pressure: 12.07.2018 11:00:00 - 18.07.2018 11:00:00 (EEST)Beirut, Lebanon (40100): visibility: 12.07.2018 11:00:00 - 18.07.2018 11:00:00 (EEST)
Date & Time tt [°C] td [°C] ff [km/h] ff [kn] dd ppp [hPa] vv [km]
18.07.2018 11:00:00 - - - - - - -
18.07.2018 10:00:00 - - - - - - -
18.07.2018 09:00:00 28,2 22,8 24 13 SW 1007,2 10
18.07.2018 08:00:00 - - - - - - -
18.07.2018 07:00:00 - - - - - - -
18.07.2018 06:00:00 26,0 19,5 8 4 - 1007,0 10
18.07.2018 05:00:00 - - - - - - -
18.07.2018 04:00:00 - - - - - - -
18.07.2018 03:00:00 26,4 19,9 5 3 - 1007,0 10
18.07.2018 02:00:00 - - - - - - -
18.07.2018 01:00:00 - - - - - - -
18.07.2018 00:00:00 26,6 22,5 11 6 SSW 1007,7 10
17.07.2018 23:00:00 - - - - - - -
17.07.2018 22:00:00 - - - - - - -
17.07.2018 21:00:00 27,6 23,7 9 5 SW 1007,6 10
17.07.2018 20:00:00 - - - - - - -
17.07.2018 19:00:00 - - - - - - -
17.07.2018 18:00:00 29,0 23,1 13 7 WSW 1007,6 20
17.07.2018 17:00:00 - - - - - - -
17.07.2018 16:00:00 - - - - - - -
17.07.2018 15:00:00 30,1 23,7 18 10 WSW 1008,2 20
17.07.2018 14:00:00 - - - - - - -
17.07.2018 13:00:00 - - - - - - -
17.07.2018 12:00:00 30,0 24,1 22 12 SW 1008,4 10
17.07.2018 11:00:00 - - - - - - -
17.07.2018 10:00:00 - - - - - - -
17.07.2018 09:00:00 28,4 22,5 21 11 SW 1008,0 10
17.07.2018 08:00:00 - - - - - - -
17.07.2018 07:00:00 - - - - - - -
17.07.2018 06:00:00 25,6 21,4 9 5 S 1007,6 10
17.07.2018 05:00:00 - - - - - - -
17.07.2018 04:00:00 - - - - - - -
17.07.2018 03:00:00 25,9 21,6 5 3 - 1007,0 10
17.07.2018 02:00:00 - - - - - - -
17.07.2018 01:00:00 - - - - - - -
17.07.2018 00:00:00 26,8 23,9 9 5 - 1007,1 10
16.07.2018 23:00:00 - - - - - - -
16.07.2018 22:00:00 - - - - - - -
16.07.2018 21:00:00 27,4 23,7 9 5 SW 1006,8 10
16.07.2018 20:00:00 - - - - - - -
16.07.2018 19:00:00 - - - - - - -
16.07.2018 18:00:00 - - - - - - -
16.07.2018 17:00:00 - - - - - - -
16.07.2018 16:00:00 - - - - - - -
16.07.2018 15:00:00 29,8 23,4 16 9 WSW 1006,8 10
16.07.2018 14:00:00 - - - - - - -
16.07.2018 13:00:00 - - - - - - -
16.07.2018 12:00:00 29,3 23,2 21 11 SW 1006,9 10
16.07.2018 11:00:00 - - - - - - -
16.07.2018 10:00:00 - - - - - - -
16.07.2018 09:00:00 28,0 22,6 16 9 SW 1006,4 10
16.07.2018 08:00:00 - - - - - - -
16.07.2018 07:00:00 - - - - - - -
16.07.2018 06:00:00 25,8 20,7 5 3 ESE 1005,4 10
16.07.2018 05:00:00 - - - - - - -
16.07.2018 04:00:00 - - - - - - -
16.07.2018 03:00:00 26,5 20,7 5 3 - 1005,4 10
16.07.2018 02:00:00 - - - - - - -
16.07.2018 01:00:00 - - - - - - -
16.07.2018 00:00:00 26,6 21,9 4 2 - 1005,2 10
15.07.2018 23:00:00 - - - - - - -
15.07.2018 22:00:00 - - - - - - -
15.07.2018 21:00:00 27,3 22,1 13 7 SW 1005,1 10
15.07.2018 20:00:00 - - - - - - -
15.07.2018 19:00:00 - - - - - - -
15.07.2018 18:00:00 29,0 22,6 18 10 SW 1004,9 10
15.07.2018 17:00:00 - - - - - - -
15.07.2018 16:00:00 - - - - - - -
15.07.2018 15:00:00 29,8 22,7 24 13 SW 1005,2 10
15.07.2018 14:00:00 - - - - - - -
15.07.2018 13:00:00 - - - - - - -
15.07.2018 12:00:00 29,6 22,2 29 16 SW 1005,7 10
15.07.2018 11:00:00 - - - - - - -
15.07.2018 10:00:00 - - - - - - -
15.07.2018 09:00:00 29,7 19,9 28 15 SSW 1004,5 10
15.07.2018 08:00:00 - - - - - - -
15.07.2018 07:00:00 - - - - - - -
15.07.2018 06:00:00 26,7 20,2 16 9 SSW 1003,6 10
15.07.2018 05:00:00 - - - - - - -
15.07.2018 04:00:00 - - - - - - -
15.07.2018 03:00:00 27,0 20,7 22 12 SSW 1003,6 10
15.07.2018 02:00:00 - - - - - - -
15.07.2018 01:00:00 - - - - - - -
15.07.2018 00:00:00 27,5 22,1 24 13 SSW 1003,9 10
14.07.2018 23:00:00 - - - - - - -
14.07.2018 22:00:00 - - - - - - -
14.07.2018 21:00:00 27,8 24,5 29 16 SW 1003,8 10
14.07.2018 20:00:00 - - - - - - -
14.07.2018 19:00:00 - - - - - - -
14.07.2018 18:00:00 29,4 24,2 29 16 SW 1003,2 10
14.07.2018 17:00:00 - - - - - - -
14.07.2018 16:00:00 - - - - - - -
14.07.2018 15:00:00 29,9 24,4 34 18 SW 1004,2 10
14.07.2018 14:00:00 - - - - - - -
14.07.2018 13:00:00 - - - - - - -
14.07.2018 12:00:00 30,2 24,5 35 19 SW 1004,3 8
14.07.2018 11:00:00 - - - - - - -
14.07.2018 10:00:00 - - - - - - -
14.07.2018 09:00:00 30,1 22,2 28 15 SSW 1004,0 8
14.07.2018 08:00:00 - - - - - - -
14.07.2018 07:00:00 - - - - - - -
14.07.2018 06:00:00 27,0 21,4 22 12 S 1003,4 10
14.07.2018 05:00:00 - - - - - - -
14.07.2018 04:00:00 - - - - - - -
14.07.2018 03:00:00 27,1 21,7 26 14 SSW 1003,5 10
14.07.2018 02:00:00 - - - - - - -
14.07.2018 01:00:00 - - - - - - -
14.07.2018 00:00:00 27,5 21,9 22 12 SSW 1005,2 10
13.07.2018 23:00:00 - - - - - - -
13.07.2018 22:00:00 - - - - - - -
13.07.2018 21:00:00 27,5 22,8 22 12 SW 1004,7 10
13.07.2018 20:00:00 - - - - - - -
13.07.2018 19:00:00 - - - - - - -
13.07.2018 18:00:00 29,0 22,4 22 12 SW 1005,1 10
13.07.2018 17:00:00 - - - - - - -
13.07.2018 16:00:00 - - - - - - -
13.07.2018 15:00:00 29,9 22,0 26 14 SW 1005,9 10
13.07.2018 14:00:00 - - - - - - -
13.07.2018 13:00:00 - - - - - - -
13.07.2018 12:00:00 29,3 21,7 28 15 SW 1006,6 9
13.07.2018 11:00:00 - - - - - - -
13.07.2018 10:00:00 - - - - - - -
13.07.2018 09:00:00 28,1 18,7 22 12 SSW 1006,5 20
13.07.2018 08:00:00 - - - - - - -
13.07.2018 07:00:00 - - - - - - -
13.07.2018 06:00:00 25,3 15,2 8 4 ESE 1006,6 20
13.07.2018 05:00:00 - - - - - - -
13.07.2018 04:00:00 - - - - - - -
13.07.2018 03:00:00 26,0 17,3 13 7 SSE 1007,4 20
13.07.2018 02:00:00 - - - - - - -
13.07.2018 01:00:00 - - - - - - -
13.07.2018 00:00:00 26,7 18,7 13 7 - 1008,3 20
12.07.2018 23:00:00 - - - - - - -
12.07.2018 22:00:00 - - - - - - -
12.07.2018 21:00:00 27,1 19,8 13 7 SW 1008,3 20
12.07.2018 20:00:00 - - - - - - -
12.07.2018 19:00:00 - - - - - - -
12.07.2018 18:00:00 28,8 19,6 15 8 WSW 1008,3 20
12.07.2018 17:00:00 - - - - - - -
12.07.2018 16:00:00 - - - - - - -
12.07.2018 15:00:00 29,7 18,4 21 11 WSW 1009,2 20
12.07.2018 14:00:00 - - - - - - -
12.07.2018 13:00:00 - - - - - - -
12.07.2018 12:00:00 29,1 19,0 21 11 WSW 1009,6 20
12.07.2018 11:00:00 - - - - - - -

tt = temperature
td = dewpoint
ff = wind speed
dd = wind direction
ppp = reduced air pressure
vv = visibility

Next stations